Regional Weather Roundup
Issued by NWS Charleston, WV

Home | Current Version | Previous Version | Graphics & Text | Print | Product List | Glossary On
Versions: 1 2 3 4 5 6 7 8 9 10 11 12 13 14 15 16 17 18 19 20 21 22 23 24 25 26 27 28 29 30 31 32 33 34 35 36 37 38 39 40 41 42 43 44 45 46 47 48 49 50
000
ASUS41 KRLX 241410
RWRRLX
West Virginia Regional Weather Roundup
National Weather Service Charleston WV
900 AM EST MON NOV 24 2014

Note: "fair" indicates few or no clouds below 12,000 feet with no
significant weather and/or obstructions to visibility.

WVZ003-241500-
Northern Panhandle of West Virginia

CITY           SKY/WX    TMP DP  RH WIND       PRES   REMARKS
WHEELING       MOSUNNY   63  50  62 S24G39    29.42F
$$

WVZ009-241500-
Northwest West Virginia

CITY           SKY/WX    TMP DP  RH WIND       PRES   REMARKS
PARKERSBURG    SUNNY     65  50  58 S14G29    29.47F
$$

WVZ006-241500-
Western West Virginia

CITY           SKY/WX    TMP DP  RH WIND       PRES   REMARKS
HUNTINGTON     SUNNY     65  47  52 SW13G28   29.48R
$$

WVZ015-241500-
West Central West Virginia

CITY           SKY/WX    TMP DP  RH WIND       PRES   REMARKS
CHARLESTON     MOSUNNY   66  46  48 S17G32    29.51F
$$

WVZ022-031-241500-
North Central West Virginia

CITY           SKY/WX    TMP DP  RH WIND       PRES   REMARKS
CLARKSBURG     SUNNY     64  49  57 S17G24    29.53R
MORGANTOWN     MOSUNNY   65  46  50 S8G22     29.51F
$$

WVZ025-035-042-045-241500-
Southern West Virginia

CITY           SKY/WX    TMP DP  RH WIND       PRES   REMARKS
BECKLEY        MOSUNNY   58  46  64 S10G22    29.65R
LOGAN            N/A     64  46  52 SW13G22   29.56R
BLUEFIELD      PTSUNNY   57  46  66 S8        29.70R
LEWISBURG      SUNNY     58  48  70 S8        29.69R
$$

WVZ047-241500-
Northern Mountains of West Virginia

CITY           SKY/WX    TMP DP  RH WIND       PRES   REMARKS
ELKINS         SUNNY     61  48  62 S7        29.60R
$$

WVZ052-241500-
Eastern Panhandle of West Virginia

CITY           SKY/WX    TMP DP  RH WIND       PRES   REMARKS
MARTINSBURG    SUNNY     58  53  84 S9        29.63R
PETERSBURG     SUNNY     59  50  72 S8        29.61S
$$


USA.gov is the U.S. government's official web portal to all federal, state and local government web resources and services.